Spokane Fairchild, WA

11:47 AM PST on January 19, 2018 (GMT -0800)
Fairchild Air Force Base

Weather History for KSKA - December, 2011

Change the Weather History Date:

Saturday, December 17, 2011

  Actual Average Record
Temperature  
Mean Temperature 28 °F -  
Max Temperature 32 °F 31 °F 44 °F (1998)
Min Temperature 23 °F 21 °F -5 °F (2016)
Degree Days  
Heating Degree Days 38    
Moisture  
Dew Point 27 °F    
Average Humidity 100    
Maximum Humidity 100    
Minimum Humidity 100    
Precipitation  
Precipitation 0.00 in - - ()
Sea Level Pressure  
Sea Level Pressure 30.31 in    
Wind  
Wind Speed 3 mph (ENE)    
Max Wind Speed 9 mph    
Max Gust Speed -    
Visibility 1 miles    
Events Fog , Rain    
Averages and records for this station are not official NWS values.
T = Trace of Precipitation, MM = Missing Value Source: NWS Daily Summary

Daily Weather History Graph

Daily Weather History Graph

Search for Another Location

Airport or City:

Trip Planner

Search our weather history database for the weather conditions in past years. The results will help you decide how hot, cold, wet, or windy it might be!

Date:

Astronomy

Dec. 17, 2011 Rise Set
Actual Time 7:33 AM PST 3:59 PM PST
Civil Twilight 6:57 AM PST 4:35 PM PST
Nautical Twilight 6:18 AM PST 5:15 PM PST
Astronomical Twilight 5:40 AM PST 5:52 PM PST
Moon No Moon Rise 11:22 AM PST (12/17)
Length of Visible Light 9h 38m
Length of Day
8h 26m
Waning Gibbous, 52% of the Moon is Illuminated
Dec 17
Waning Gibbous
Dec 17
Last Quarter
Dec 24
New
Dec 31
First Quarter
Jan 8
Full

Hourly Weather History & Observations

Time (PST) Temp. Windchill Dew Point Humidity Pressure Visibility Wind Dir Wind Speed Gust Speed Precip Events Conditions
12:02 AM 30.2 °F 26.7 °F 30.2 °F 100% 30.49 in 0.2 mi East 3.5 mph - N/A Fog Light Freezing Fog
12:09 AM 30.2 °F 25.4 °F 30.2 °F 100% 30.49 in 0.2 mi East 4.6 mph - N/A Fog Light Freezing Drizzle
12:38 AM 28.4 °F 22.2 °F 28.4 °F 100% 30.49 in 0.2 mi NE 5.8 mph - N/A Fog Light Freezing Fog
12:54 AM 28.4 °F 24.6 °F 28.4 °F 100% 30.48 in 0.2 mi NE 3.5 mph - N/A Fog , Rain Light Freezing Rain
1:20 AM 28.4 °F 24.6 °F 28.4 °F 100% 30.47 in 0.2 mi East 3.5 mph - N/A Fog Light Freezing Fog
1:27 AM 28.4 °F 23.3 °F 28.4 °F 100% 30.48 in 0.2 mi NE 4.6 mph - N/A Fog Light Freezing Fog
1:32 AM 28.4 °F 24.6 °F 28.4 °F 100% 30.47 in 0.2 mi ENE 3.5 mph - N/A Fog , Rain Light Freezing Rain
1:55 AM 28.4 °F 23.3 °F 28.4 °F 100% 30.47 in 0.2 mi NE 4.6 mph - 0.00 in Fog , Rain Light Freezing Rain
2:02 AM 28.4 °F 23.3 °F 28.4 °F 100% 30.47 in 0.2 mi NE 4.6 mph - N/A Fog Light Freezing Fog
2:37 AM 26.6 °F 21.2 °F 26.6 °F 100% 30.46 in 0.2 mi East 4.6 mph - N/A Fog Light Freezing Drizzle
2:49 AM 26.6 °F 21.2 °F 26.6 °F 100% 30.46 in 0.2 mi East 4.6 mph - N/A Fog Light Freezing Drizzle
2:55 AM 26.8 °F 21.4 °F 26.8 °F 100% 30.45 in 0.2 mi East 4.6 mph - 0.00 in Fog Light Freezing Drizzle
2:58 AM 26.6 °F 21.2 °F 26.6 °F 100% 30.46 in 0.2 mi East 4.6 mph - N/A Fog Light Freezing Drizzle
3:12 AM 26.6 °F - 26.6 °F 100% 30.46 in 0.2 mi Calm Calm - N/A Fog Light Freezing Fog
3:17 AM 26.6 °F 22.6 °F 26.6 °F 100% 30.45 in 0.2 mi ENE 3.5 mph - N/A Fog Light Freezing Drizzle
3:29 AM 24.8 °F 20.5 °F 24.8 °F 100% 30.45 in 0.2 mi East 3.5 mph - N/A Fog Light Freezing Drizzle
3:55 AM 25.0 °F 19.3 °F 25.0 °F 100% 30.45 in 0.2 mi ENE 4.6 mph - 0.00 in Fog Light Freezing Fog
4:55 AM 25.5 °F 21.3 °F 25.5 °F 100% 30.45 in 0.2 mi NE 3.5 mph - 0.00 in Fog Light Freezing Drizzle
5:32 AM 24.8 °F 20.5 °F 24.8 °F 100% 30.45 in 0.2 mi NE 3.5 mph - N/A Fog Light Freezing Drizzle
5:48 AM 24.8 °F - 24.8 °F 100% 30.44 in 0.2 mi Calm Calm - N/A Fog Light Freezing Drizzle
5:55 AM 25.0 °F 20.7 °F 25.0 °F 100% 30.44 in 0.2 mi NE 3.5 mph - 0.00 in Fog , Rain Light Freezing Rain
6:07 AM 24.8 °F 20.5 °F 24.8 °F 100% 30.44 in 0.2 mi NE 3.5 mph - N/A Fog , Rain Light Freezing Rain
6:21 AM 24.8 °F 19.1 °F 24.8 °F 100% 30.44 in 0.2 mi NE 4.6 mph - N/A Fog , Rain Light Freezing Rain
6:55 AM 25.9 °F - 25.9 °F 100% 30.44 in 0.2 mi Calm Calm - 0.00 in Fog , Rain Light Freezing Rain
7:55 AM 26.1 °F 21.9 °F 26.1 °F 100% 30.44 in 0.2 mi NNE 3.5 mph - 0.00 in Fog , Rain Light Freezing Rain
8:55 AM 25.7 °F - 25.7 °F 100% 30.44 in 0.2 mi Calm Calm - 0.00 in Fog , Rain Light Freezing Rain
9:01 AM 26.6 °F 22.6 °F 26.6 °F 100% 30.44 in 0.2 mi NNE 3.5 mph - N/A Fog Light Freezing Fog
9:03 AM 26.6 °F 22.6 °F 26.6 °F 100% 30.44 in 0.2 mi NNE 3.5 mph - N/A Fog Light Freezing Drizzle
9:19 AM 26.6 °F 22.6 °F 26.6 °F 100% 30.44 in 0.2 mi ENE 3.5 mph - N/A Fog Light Freezing Fog
9:23 AM 26.6 °F 22.6 °F 26.6 °F 100% 30.43 in 0.2 mi NE 3.5 mph - N/A Fog Light Freezing Drizzle
9:43 AM 26.6 °F 22.6 °F 26.6 °F 100% 30.43 in 0.2 mi ENE 3.5 mph - N/A Fog Light Freezing Fog
9:44 AM 26.6 °F 22.6 °F 26.6 °F 100% 30.43 in 0.2 mi ENE 3.5 mph - N/A Fog , Rain Light Freezing Rain
9:55 AM 26.8 °F 22.8 °F 26.8 °F 100% 30.43 in 0.2 mi ENE 3.5 mph - 0.00 in Fog , Rain Light Freezing Rain
10:37 AM 28.4 °F 24.6 °F 28.4 °F 100% 30.41 in 0.2 mi East 3.5 mph - N/A Fog , Rain Light Freezing Rain
10:49 AM 28.4 °F - 28.4 °F 100% 30.41 in 0.2 mi Calm Calm - N/A Fog Light Freezing Fog
10:55 AM 28.9 °F 25.2 °F 28.9 °F 100% 30.40 in 0.2 mi ENE 3.5 mph - 0.00 in Fog Light Freezing Fog
10:56 AM 28.4 °F 24.6 °F 28.4 °F 100% 30.40 in 0.2 mi ENE 3.5 mph - N/A Fog Light Freezing Fog
11:02 AM 28.4 °F 24.6 °F 28.4 °F 100% 30.40 in 0.2 mi NE 3.5 mph - N/A Fog Light Freezing Fog
11:03 AM 28.4 °F 24.6 °F 28.4 °F 100% 30.40 in 0.2 mi NE 3.5 mph - N/A Fog Light Freezing Fog
11:13 AM 30.2 °F 26.7 °F 30.2 °F 100% 30.39 in 0.2 mi NE 3.5 mph - N/A Fog Light Freezing Fog
11:14 AM 30.2 °F 26.7 °F 30.2 °F 100% 30.39 in 0.2 mi NE 3.5 mph - N/A Fog , Rain Light Freezing Rain
11:32 AM 30.2 °F 26.7 °F 30.2 °F 100% 30.38 in 0.2 mi ENE 3.5 mph - N/A Fog Light Freezing Fog
11:34 AM 30.2 °F - 30.2 °F 100% 30.38 in 0.2 mi Calm Calm - N/A Fog Light Freezing Fog
11:36 AM 30.2 °F - 30.2 °F 100% 30.38 in 0.5 mi Calm Calm - N/A Fog Light Freezing Fog
11:40 AM 30.2 °F - 30.2 °F 100% 30.38 in 0.8 mi Calm Calm - N/A   Mist
11:44 AM 32.0 °F 28.7 °F 32.0 °F 100% 30.38 in 0.8 mi NE 3.5 mph - N/A   Mist
11:46 AM 32.0 °F 28.7 °F 32.0 °F 100% 30.38 in 0.5 mi NE 3.5 mph - N/A Fog Light Freezing Fog
11:55 AM 31.3 °F 27.9 °F 31.3 °F 100% 30.37 in 0.5 mi NE 3.5 mph - 0.00 in Fog Light Freezing Fog
12:01 PM 32.0 °F - 32.0 °F 100% 30.37 in 0.5 mi Calm Calm - N/A Fog Light Freezing Fog
12:06 PM 32.0 °F 28.7 °F 32.0 °F 100% 30.37 in 0.8 mi ENE 3.5 mph - N/A   Mist
12:13 PM 32.0 °F - 32.0 °F 100% 30.36 in 0.8 mi Calm Calm - N/A   Mist
12:14 PM 32.0 °F - 32.0 °F 100% 30.36 in 0.5 mi Calm Calm - N/A Fog Light Freezing Fog
12:15 PM 32.0 °F 28.7 °F 32.0 °F 100% 30.36 in 0.5 mi NE 3.5 mph - N/A Fog Light Freezing Fog
12:24 PM 32.0 °F 28.7 °F 32.0 °F 100% 30.36 in 0.5 mi ENE 3.5 mph - N/A Fog Light Freezing Fog
12:27 PM 32.0 °F 27.5 °F 32.0 °F 100% 30.36 in 0.8 mi NE 4.6 mph - N/A   Mist
12:28 PM 32.0 °F 27.5 °F 32.0 °F 100% 30.36 in 0.8 mi NE 4.6 mph - N/A   Mist
12:31 PM 32.0 °F 27.5 °F 32.0 °F 100% 30.36 in 0.5 mi NE 4.6 mph - N/A Fog Light Freezing Fog
12:32 PM 32.0 °F 27.5 °F 32.0 °F 100% 30.36 in 0.5 mi NNE 4.6 mph - N/A Fog Light Freezing Fog
12:40 PM 32.0 °F 27.5 °F 32.0 °F 100% 30.36 in 0.2 mi NE 4.6 mph - N/A Fog Light Freezing Fog
12:46 PM 32.0 °F 27.5 °F 32.0 °F 100% 30.35 in 0.2 mi NE 4.6 mph - N/A Fog Light Freezing Fog
12:47 PM 32.0 °F 27.5 °F 32.0 °F 100% 30.35 in 0.2 mi NE 4.6 mph - N/A Fog Light Freezing Fog
12:48 PM 32.0 °F 27.5 °F 32.0 °F 100% 30.35 in 0.2 mi NE 4.6 mph - N/A Fog Light Freezing Fog
12:55 PM 32.2 °F 27.7 °F 32.2 °F 100% 30.35 in 0.2 mi NNE 4.6 mph - 0.00 in Fog Fog
1:01 PM 32.0 °F 27.5 °F 32.0 °F 100% 30.35 in 0.2 mi NNE 4.6 mph - N/A Fog Fog
1:05 PM 32.0 °F 27.5 °F 32.0 °F 100% 30.34 in 0.2 mi NNE 4.6 mph - N/A Fog Fog
1:11 PM 32.0 °F 27.5 °F 32.0 °F 100% 30.34 in 0.2 mi NNE 4.6 mph - N/A Fog Fog
1:17 PM 32.0 °F 27.5 °F 32.0 °F 100% 30.34 in 0.2 mi NNE 4.6 mph - N/A Fog Light Freezing Fog
1:54 PM 32.0 °F 27.5 °F 32.0 °F 100% 30.33 in 0.2 mi North 4.6 mph - N/A Fog Light Freezing Fog
2:31 PM 32.0 °F 28.7 °F 32.0 °F 100% 30.31 in 0.2 mi NNE 3.5 mph - N/A Fog Light Freezing Fog
2:33 PM 32.0 °F 28.7 °F 32.0 °F 100% 30.31 in 0.2 mi NE 3.5 mph - N/A Fog Light Freezing Fog
2:44 PM 32.0 °F 27.5 °F 32.0 °F 100% 30.30 in 0.2 mi NNE 4.6 mph - N/A Fog Light Freezing Fog
2:55 PM 31.5 °F 28.1 °F 31.5 °F 100% 30.31 in 0.2 mi ENE 3.5 mph - 0.00 in Fog Light Freezing Fog
3:21 PM 30.2 °F - 30.2 °F 100% 30.30 in 0.2 mi Calm Calm - N/A Fog Light Freezing Fog
3:22 PM 30.2 °F - 30.2 °F 100% 30.30 in 0.2 mi Calm Calm - N/A Fog Light Freezing Fog
3:31 PM 30.2 °F 26.7 °F 30.2 °F 100% 30.29 in 0.2 mi NE 3.5 mph - N/A Fog Light Freezing Fog
3:35 PM 30.2 °F 26.7 °F 30.2 °F 100% 30.29 in 0.2 mi NE 3.5 mph - N/A Fog Light Freezing Fog
3:37 PM 30.2 °F 26.7 °F 30.2 °F 100% 30.29 in 0.2 mi ENE 3.5 mph - N/A Fog Light Freezing Fog
3:51 PM 30.2 °F 25.4 °F 30.2 °F 100% 30.29 in 0.2 mi ENE 4.6 mph - N/A Fog Light Freezing Drizzle
3:55 PM 29.3 °F 25.6 °F 29.3 °F 100% 30.29 in 0.2 mi ENE 3.5 mph - 0.00 in Fog Light Freezing Drizzle
3:57 PM 28.4 °F 24.6 °F 28.4 °F 100% 30.28 in 0.2 mi ENE 3.5 mph - N/A Fog Light Freezing Drizzle
4:07 PM 28.4 °F 23.3 °F 28.4 °F 100% 30.28 in 0.2 mi NNE 4.6 mph - N/A Fog , Rain Light Freezing Rain
4:09 PM 28.4 °F 22.2 °F 28.4 °F 100% 30.28 in 0.2 mi NE 5.8 mph - N/A Fog , Rain Light Freezing Rain
4:26 PM 28.4 °F 22.2 °F 28.4 °F 100% 30.28 in 0.2 mi NNE 5.8 mph - N/A Fog , Rain Light Freezing Rain
4:46 PM 28.4 °F 23.3 °F 28.4 °F 100% 30.27 in 0.2 mi NNE 4.6 mph - N/A Fog , Rain Light Freezing Rain
4:51 PM 26.6 °F 21.2 °F 26.6 °F 100% 30.27 in 0.2 mi North 4.6 mph - N/A Fog Light Freezing Fog
4:55 PM 27.1 °F 23.2 °F 27.1 °F 100% 30.27 in 0.2 mi NE 3.5 mph - 0.00 in Fog Light Freezing Fog
4:58 PM 26.6 °F 22.6 °F 26.6 °F 100% 30.26 in 0.2 mi ENE 3.5 mph - N/A Fog Light Freezing Drizzle
5:24 PM 26.6 °F - 26.6 °F 100% 30.25 in 0.2 mi Calm Calm - N/A Fog Light Freezing Drizzle
5:33 PM 26.6 °F - 26.6 °F 100% 30.25 in 0.2 mi Calm Calm - N/A Fog Light Freezing Fog
5:36 PM 26.6 °F 22.6 °F 26.6 °F 100% 30.25 in 0.2 mi ENE 3.5 mph - N/A Fog Light Freezing Fog
5:41 PM 26.6 °F - 26.6 °F 100% 30.25 in 0.2 mi Calm Calm - N/A Fog Light Freezing Fog
5:43 PM 26.6 °F - 26.6 °F 100% 30.25 in 0.5 mi Calm Calm - N/A Fog Light Freezing Fog
5:46 PM 26.6 °F - 26.6 °F 100% 30.25 in 0.5 mi Calm Calm - N/A Fog Light Freezing Fog
5:52 PM 24.8 °F - 24.8 °F 100% 30.25 in 0.5 mi Calm Calm - N/A Fog Light Freezing Fog
5:54 PM 24.8 °F - 24.8 °F 100% 30.25 in 0.8 mi Calm Calm - N/A   Clear
5:56 PM 24.8 °F - 24.8 °F 100% 30.24 in 0.8 mi Calm Calm - N/A Rain Light Freezing Rain
6:09 PM 24.8 °F - 24.8 °F 100% 30.23 in 0.5 mi Calm Calm - N/A Fog , Rain Light Freezing Rain
6:10 PM 24.8 °F - 24.8 °F 100% 30.23 in 0.5 mi Calm Calm - N/A Fog , Rain Light Freezing Rain
6:12 PM 24.8 °F - 24.8 °F 100% 30.23 in 0.5 mi Calm Calm - N/A Fog , Rain Light Freezing Rain
6:15 PM 24.8 °F - 24.8 °F 100% 30.23 in 0.5 mi Calm Calm - N/A Fog Light Freezing Fog
6:35 PM 24.8 °F - 24.8 °F 100% 30.22 in 0.5 mi Calm Calm - N/A Fog Light Freezing Fog
6:38 PM 24.8 °F - 24.8 °F 100% 30.22 in 0.8 mi Calm Calm - N/A   Clear
6:53 PM 24.8 °F - 24.8 °F 100% 30.21 in 1.0 mi Calm Calm - N/A   Clear
6:55 PM 24.3 °F - 24.3 °F 100% 30.21 in 1.0 mi Calm Calm - 0.00 in   Clear
6:59 PM 24.8 °F - 24.8 °F 100% 30.21 in 1.5 mi Calm Calm - N/A   Clear
7:04 PM 24.8 °F - 24.8 °F 100% 30.21 in 2.0 mi Calm Calm - N/A   Clear
7:13 PM 24.8 °F - 24.8 °F 100% 30.21 in 3.0 mi Calm Calm - N/A   Clear
7:28 PM 24.8 °F 20.5 °F 24.8 °F 100% 30.20 in 5.0 mi North 3.5 mph - N/A   Clear
7:38 PM 23.0 °F 18.4 °F 23.0 °F 100% 30.20 in 9.0 mi North 3.5 mph - N/A   Clear
7:55 PM 24.1 °F - 24.1 °F 100% 30.19 in 10.0 mi Calm Calm - 0.00 in   Clear
8:34 PM 24.8 °F 19.1 °F 24.8 °F 100% 30.17 in 10.0 mi SE 4.6 mph - N/A   Clear
8:54 PM 23.0 °F 18.4 °F 23.0 °F 100% 30.16 in 2.5 mi ESE 3.5 mph - N/A   Clear
8:59 PM 23.0 °F 18.4 °F 23.0 °F 100% 30.16 in 1.8 mi ESE 3.5 mph - N/A   Clear
9:01 PM 23.0 °F - 23.0 °F 100% 30.16 in 2.0 mi Calm Calm - N/A   Clear
9:10 PM 23.0 °F - 23.0 °F 100% 30.16 in 3.0 mi Calm Calm - N/A   Clear
9:17 PM 23.0 °F - 23.0 °F 100% 30.16 in 7.0 mi Calm Calm - N/A   Clear
9:47 PM 23.0 °F 18.4 °F 23.0 °F 100% 30.15 in 0.5 mi ENE 3.5 mph - N/A Fog Light Freezing Fog
9:50 PM 23.0 °F 18.4 °F 23.0 °F 100% 30.15 in 0.2 mi ENE 3.5 mph - N/A Fog Light Freezing Fog
9:55 PM 23.7 °F 17.8 °F 23.7 °F 100% 30.14 in 0.2 mi East 4.6 mph - 0.00 in Fog Light Freezing Fog
10:04 PM 23.0 °F 18.4 °F 23.0 °F 100% 30.14 in 0.5 mi East 3.5 mph - N/A Fog Light Freezing Fog
10:07 PM 23.0 °F 18.4 °F 23.0 °F 100% 30.14 in 0.5 mi ESE 3.5 mph - N/A Fog Light Freezing Fog
10:11 PM 23.0 °F - 23.0 °F 100% 30.14 in 0.5 mi Calm Calm - N/A Fog Light Freezing Fog
10:15 PM 23.0 °F - 23.0 °F 100% 30.14 in 0.8 mi Calm Calm - N/A   Clear
10:18 PM 23.0 °F - 23.0 °F 100% 30.14 in 0.8 mi Calm Calm - N/A   Clear
10:21 PM 23.0 °F - 23.0 °F 100% 30.13 in 0.8 mi Calm Calm - N/A   Clear
10:25 PM 23.0 °F - 23.0 °F 100% 30.13 in 1.0 mi Calm Calm - N/A   Clear
10:26 PM 23.0 °F 18.4 °F 23.0 °F 100% 30.13 in 1.0 mi SE 3.5 mph - N/A   Clear
10:29 PM 23.0 °F 17.0 °F 23.0 °F 100% 30.12 in 1.5 mi SE 4.6 mph - N/A   Clear
10:31 PM 23.0 °F 15.8 °F 23.0 °F 100% 30.12 in 2.0 mi SE 5.8 mph - N/A   Clear
10:33 PM 23.0 °F 17.0 °F 23.0 °F 100% 30.12 in 3.0 mi SE 4.6 mph - N/A   Clear
10:55 PM 25.3 °F 21.1 °F 25.3 °F 100% 30.11 in 10.0 mi SSE 3.5 mph - 0.00 in   Clear
11:50 PM 28.4 °F 20.4 °F 28.4 °F 100% 30.06 in 10.0 mi South 8.1 mph - N/A   Clear
11:55 PM 28.9 °F 20.4 °F 28.9 °F 100% 30.06 in 10.0 mi South 9.2 mph - 0.00 in   Clear